Flag Weather past 2 weeks in Male, Maldives

Now
82 °F

Passing clouds.


Feels Like: 88 °F
Forecast: 79 / 86 °F
Wind: 8 mph from Northwest

Location: Male Airport

Current Time: Nov 23, 2014 at 10:23:25 PM

Latest Report: Nov 23, 2014 at 9:00 PM


Visibility: N/A

Pressure: 29.89 "Hg

Humidity: 74%

Dew point: 73 °F

Location of MaleLocation

Historic Weather in Male — Graph

°F

Male temperature yesterday

Maximum temperature yesterday: 86 °F (at 1:00 PM)
Minimum temperature yesterday: 77 °F (at 3:00 PM)
Average temperature yesterday: 81 °F

Past Weeks' High & Low Weather Summary

 TemperatureHumidityPressure
High88 °F (Nov 9, 3:00 PM)100% (Nov 22, 3:00 PM)29.92 "Hg (Nov 22, 3:00 PM)
Low77 °F (Nov 10, 7:00 AM)62% (Nov 14, 11:00 AM)29.74 "Hg (Nov 13, 3:00 PM)
Average83 °F80%29.84 "Hg
* Reported Nov 8 9:00 PM — Nov 23 9:00 PM, Male, Weather by CustomWeather, © 2014

Note: Actual official high and low records may vary slightly from our data, if they occured in-between our weather recording intervals... More about our weather records

Advertising

Male weather history for previous 24 hours

 ConditionsComfort  
Time TempWeatherWind HumidityBarometerVisibility
9:00 PM
Nov 23
82 °FPassing clouds.8 mph74%29.89 "HgN/A
8:00 PM82 °FPassing clouds.13 mph79%29.89 "HgN/A
7:00 PM82 °FPassing clouds.10 mph70%29.86 "HgN/A
6:00 PM84 °FPartly cloudy.12 mph79%29.80 "HgN/A
5:00 PM84 °FBroken clouds.14 mph74%29.80 "HgN/A
4:00 PM84 °FPartly sunny.20 mph74%29.77 "HgN/A
3:00 PM84 °FPartly sunny.15 mph74%29.77 "HgN/A
2:00 PM86 °FBroken clouds.16 mph75%29.80 "HgN/A
1:00 PM84 °FBroken clouds.14 mph79%29.83 "HgN/A
12:00 PM86 °FBroken clouds.16 mph70%29.86 "HgN/A
11:00 AM84 °FBroken clouds.13 mph74%29.89 "HgN/A
10:00 AM84 °FBroken clouds.14 mph74%29.89 "HgN/A
9:00 AM84 °FBroken clouds.14 mph74%29.89 "HgN/A
8:00 AM82 °FBroken clouds.14 mph79%29.86 "HgN/A
7:00 AM81 °FMore clouds than sun.10 mph84%29.83 "Hg6 mi
6:00 AM81 °FMore clouds than sun.16 mph84%29.80 "Hg6 mi
5:00 AM79 °FMostly cloudy.13 mph89%29.80 "Hg6 mi
4:00 AM79 °FLight rain. Mostly cloudy.N/A94%29.80 "Hg5 mi
3:00 AM77 °FLight rain. Mostly cloudy.N/A94%29.80 "Hg5 mi
2:00 AM77 °FLight rain. Overcast.N/A94%29.80 "Hg4 mi
1:00 AM77 °FLight rain. Mostly cloudy.7 mph94%29.86 "Hg4 mi
12:00 AM77 °FLight rain. Mostly cloudy.No wind94%29.89 "Hg5 mi
11:00 PM
Nov 22
77 °FLight rain. Overcast.No wind94%29.92 "Hg5 mi
10:00 PM77 °FLight rain. Mostly cloudy.6 mph94%29.92 "Hg5 mi
Weather by CustomWeather, © 2014

See weather overviewHow to use our weather pages